OSCAR 7 1 07530U 74089B 10245.61474016 -.00000027 +00000-0 +10000-3 0 08694 2 07530 101.4011 258.4766 0011972 121.1693 239.0549 12.53579451638153 OSCAR 11 (UoSAT 2) 1 14781U 84021B 10245.57882365 -.00000016 00000-0 50100-5 0 3298 2 14781 098.0488 297.5243 0009195 355.5622 004.5521 14.79829167423251 EGS (AJISAI) 1 16908U 86061A 10245.95476540 -.00000083 +00000-0 +10000-3 0 03650 2 16908 050.0078 237.6342 0011354 263.1370 096.8173 12.44464744762738 TDRS 3 1 19548U 88091B 10244.35720557 -.00000292 00000-0 10000-3 0 5183 2 19548 012.6481 035.3337 0030612 322.5127 062.4114 01.00277149 67573 NAVSTAR 13 (USA 35) 1 19802U 89013A 10246.17653480 .00000006 00000-0 10000-3 0 5668 2 19802 055.4713 290.0778 0046273 108.6028 251.9766 01.85321273152306 TDRS 4 1 19883U 89021B 10245.32279322 -.00000286 00000-0 10000-3 0 8788 2 19883 011.4419 046.7137 0002934 008.7089 356.3558 01.00272038251151 NAVSTAR 14 (USA 38) 1 20061U 89044A 10245.75329243 .00000023 00000-0 10000-3 0 2397 2 20061 054.2406 085.4848 0022591 090.5409 269.7967 01.88857548152902 NAVSTAR 15 (USA 42) 1 20185U 89064A 10244.34458704 .00000002 00000-0 10000-3 0 97 2 20185 055.2315 287.6097 0014934 241.2386 118.6820 01.86084885148877 NAVSTAR 16 (USA 47) 1 20302U 89085A 10243.43246151 -.00000043 00000-0 10000-3 0 2044 2 20302 055.5234 028.1948 0006881 347.8359 012.1600 01.89423439149262 NAVSTAR 17 (USA 49) 1 20361U 89097A 10246.07361085 .00000052 00000-0 10000-3 0 6974 2 20361 054.0820 215.8058 0018801 232.0193 127.5489 01.89175100140261 OSCAR 14 (UOSAT 3) 1 20437U 90005B 10245.76610197 +.00000006 +00000-0 +18281-4 0 03016 2 20437 098.3964 193.2528 0009781 299.6350 060.3862 14.31583020076371 OSCAR 16 (PACSAT) 1 20439U 90005D 10245.75469115 .00000005 00000-0 17534-4 0 9845 2 20439 098.3392 200.6368 0010246 300.5820 059.4350 14.31872052 76484 OSCAR 19 (LUSAT) 1 20442U 90005G 10245.46050651 -.00000094 00000-0 -19548-4 0 8934 2 20442 098.3006 205.8439 0011017 294.1552 065.8470 14.32101575 76618 NAVSTAR 18 (USA 50) 1 20452U 90008A 10245.48978769 -.00000077 00000-0 10000-3 0 5759 2 20452 056.4352 335.9227 0012158 200.8205 159.1887 01.89596097146919 JAS 1B (FUJI 2) 1 20480U 90013C 10245.51796827 -.00000041 +00000-0 -12128-4 0 05535 2 20480 099.0212 088.2986 0539589 248.6414 105.6305 12.83365284963648 NAVSTAR 20 (USA 63) 1 20724U 90068A 10246.08251952 .00000031 00000-0 10000-3 0 6730 2 20724 054.6074 277.5149 0047734 240.9303 118.6623 01.87182180141991 FENGYUN 1B 1 20788U 90081A 10246.47410824 -.00000018 00000-0 17615-4 0 722 2 20788 099.1276 269.5699 0016128 177.7880 182.3357 14.02379864 23506 NAVSTAR 21 (USA 64) 1 20830U 90088A 10246.02460570 .00000048 00000-0 10000-3 0 6291 2 20830 054.0887 210.9731 0016694 166.0977 193.9297 01.87754476144606 NAVSTAR 22 (USA 66) 1 20959U 90103A 10246.32844418 .00000049 00000-0 10000-3 0 8339 2 20959 054.8877 265.1275 0128127 305.3554 053.5145 02.00565595144795 COSMOS 2123 1 21089U 91007A 10245.71122672 +.00000030 +00000-0 +15937-4 0 05636 2 21089 082.9229 298.2229 0029021 173.6023 186.5512 13.74495979981985 NOAA 12 1 21263U 91032A 10245.69311957 +.00000022 +00000-0 +28041-4 0 06925 2 21263 098.7654 258.8434 0011783 305.4233 054.5844 14.25651342003443 NAVSTAR 23 (USA 71) 1 21552U 91047A 10246.19093306 .00000034 00000-0 10000-3 0 8158 2 21552 054.3653 203.1825 0057074 334.4562 025.2076 02.00431763140377 OSCAR 22 (UoSAT 5) 1 21575U 91050B 10245.75312121 .00000138 00000-0 57983-4 0 9234 2 21575 098.4982 194.9113 0008121 129.2732 230.9186 14.39731927 4388 TDRS 5 1 21639U 91054B 10245.58044096 +.00000101 +00000-0 +10000-3 0 07004 2 21639 010.8321 050.3104 0017322 330.1608 002.7524 01.00281488069891 METEOR 3-5 1 21655U 91056A 10245.89634785 +.00000051 +00000-0 +10000-3 0 09048 2 21655 082.5544 253.7270 0014117 149.5328 210.6612 13.17026506915904 NAVSTAR 24 (USA 79) 1 21890U 92009A 10244.53817647 -.00000057 00000-0 10000-3 0 8224 2 21890 055.7834 015.8049 0036442 302.3212 057.3400 01.91828954135592 NAVSTAR 26 (USA 83) 1 22014U 92039A 10246.12759513 -.00000059 00000-0 10000-3 0 7254 2 22014 056.7145 324.1399 0195966 063.6361 298.4181 02.00568169126527 OSCAR 23 (KITSAT 1) 1 22077U 92052B 10245.72036271 -.00000037 +00000-0 +10000-3 0 00598 2 22077 066.0844 119.8277 0000564 106.8989 253.2087 12.86454267848449 NAVSTAR 27 (USA 84) 1 22108U 92058A 10245.73065955 -.00000052 00000-0 10000-3 0 6190 2 22108 056.1036 017.2917 0217238 280.6254 076.9506 02.00573347131697 NAVSTAR 28 (USA 85) 1 22231U 92079A 10245.33436260 -.00000062 00000-0 10000-3 0 5715 2 22231 056.6075 324.8671 0083435 253.8523 105.2865 02.00574514130260 NAVSTAR 29 (USA 87) 1 22275U 92089A 10244.51967179 -.00000070 00000-0 10000-3 0 3831 2 22275 056.5307 327.0944 0038248 341.9885 017.9332 01.88249601128395 TDRS 6 1 22314U 93003B 10245.64001566 .00000087 00000-0 10000-3 0 7208 2 22314 010.2044 053.2663 0010072 346.9400 000.5803 01.00277235 64616 NAVSTAR 30 (USA 88) 1 22446U 93007A 10242.72070682 .00000004 00000-0 10000-3 0 4812 2 22446 054.1817 087.2872 0023180 291.7567 068.0807 01.88093258125530 NAVSTAR 31 (USA 90) 1 22581U 93017A 10244.81126610 -.00000004 00000-0 10000-3 0 2187 2 22581 053.5488 144.5857 0003457 316.7159 043.3068 01.88946815125707 NAVSTAR 32 (USA 91) 1 22657U 93032A 10244.99282396 -.00000003 00000-0 10000-3 0 8029 2 22657 053.6749 135.9568 0096287 287.5295 071.4874 02.00562728123037 NAVSTAR 33 (USA 92) 1 22700U 93042A 10246.25427828 -.00000051 00000-0 10000-3 0 9621 2 22700 056.2342 018.7166 0169052 088.7536 273.1966 02.00560405125862 NAVSTAR 34 (USA 94) 1 22779U 93054A 10244.85508013 .00000013 00000-0 10000-3 0 5218 2 22779 054.5230 074.5050 0106061 082.9864 278.2869 02.00560685124595 METEOR 2-21 1 22782U 93055A 10245.37776590 +.00000039 +00000-0 +21369-4 0 08748 2 22782 082.5493 191.2009 0022144 181.9804 178.1268 13.83647313858755 KITSAT B 1 22825U 93061C 10245.71782852 .00000017 00000-0 23622-4 0 6163 2 22825 098.4909 191.6835 0009153 045.1854 315.0061 14.29306351883120 POSAT 1 1 22826U 93061D 10245.69939671 +.00000021 +00000-0 +24824-4 0 03554 2 22826 098.4852 192.2380 0009699 040.6040 319.5860 14.29563579883237 ITAMSAT 1 22828U 93061F 10245.85182878 +.00000046 +00000-0 +34397-4 0 05569 2 22828 098.4778 192.1864 0010275 014.5491 345.5976 14.29857059851549 NAVSTAR 35 (USA 96) 1 22877U 93068A 10245.39539008 .00000037 00000-0 10000-3 0 3090 2 22877 053.7919 200.3283 0091703 035.1797 325.4010 02.00555627123498 NAVSTAR 36 (USA 100) 1 23027U 94016A 10245.59783130 -.00000004 +00000-0 +10000-3 0 02826 2 23027 053.5570 137.2848 0064045 302.9105 056.5351 02.00565184120800 RADIO ROSTO 1 23439U 94085A 10245.54993180 -.00000039 +00000-0 +10000-3 0 03494 2 23439 064.8177 269.4445 0161853 330.3883 028.7951 11.27554497645992 NOAA 14 1 23455U 94089A 10245.70737587 -.00000032 +00000-0 +67083-5 0 01813 2 23455 098.8746 325.8963 0009791 021.0087 339.1494 14.13792600808454 ORBCOMM FM 1 1 23545U 95017A 10245.77527628 +.00000445 +00000-0 +10299-3 0 05956 2 23545 069.9730 172.2357 0010428 311.8281 048.1984 14.61605746818732 ORBCOMM FM 2 1 23546U 95017B 10246.37837546 .00000309 00000-0 75835-4 0 6539 2 23546 069.9757 173.0326 0012365 301.4204 058.5750 14.61487439818833 TDRS 7 1 23613U 95035B 10245.65712178 -.00000195 00000-0 00000+0 0 7966 2 23613 011.9415 043.2601 0028884 327.5786 292.3578 01.00272347 55420 NAVSTAR 37 (USA 117) 1 23833U 96019A 10245.61644621 -.00000003 00000-0 10000-3 0 4708 2 23833 053.1465 133.1978 0133987 058.4412 302.9410 02.00571431105785 NAVSTAR 38 (USA 126) 1 23953U 96041A 10244.99511089 +.00000051 +00000-0 +10000-3 0 09681 2 23953 054.5582 261.5298 0091306 036.9797 323.6903 02.00582619103560 JAS 2 1 24278U 96046B 10246.56650986 -.00000066 00000-0 -28421-4 0 3872 2 24278 098.5174 064.8702 0349808 280.5957 075.5967 13.52951543693706 NAVSTAR 39 (USA 128) 1 24320U 96056A 10245.89065634 .00000023 00000-0 10000-3 0 6907 2 24320 054.8400 077.7128 0123631 086.5479 274.9383 02.00560278102246 FENGYUN 2A 1 24834U 97029A 10245.56699684 -.00000074 00000-0 10000-3 0 5265 2 24834 009.4588 057.5975 0094904 083.5104 277.7048 00.96050988 48015 NAVSTAR 43 (USA 132) 1 24876U 97035A 10245.48395680 -.00000061 00000-0 10000-3 0 4421 2 24876 056.8452 324.3800 0041890 103.9164 256.6107 02.00559092 96100 NAVSTAR 44 (USA 134) 1 25030U 97067A 10245.61716738 -.00000039 00000-0 10000-3 0 3665 2 25030 056.9463 024.4999 0112723 180.6582 179.3457 02.00564438 94009 ORBCOMM FM 8 1 25112U 97084A 10245.80424897 .00000151 00000-0 10276-3 0 6109 2 25112 045.0162 071.8830 0009706 138.8139 221.3377 14.34439760663802 ORBCOMM FM 10 1 25113U 97084B 10245.83879055 +.00000106 +00000-0 +87120-4 0 03417 2 25113 045.0183 072.5556 0007283 109.3159 250.8497 14.34440019663801 ORBCOMM FM 11 1 25114U 97084C 10245.83075185 .00000166 00000-0 10809-3 0 2740 2 25114 045.0170 072.2153 0007741 115.2750 244.8886 14.34442770663801 ORBCOMM FM 12 1 25115U 97084D 10245.81291122 .00000046 00000-0 65770-4 0 2712 2 25115 045.0172 072.0392 0006511 113.9724 246.1792 14.34443596663805 ORBCOMM FM 9 1 25116U 97084E 10245.68261739 +.00000147 +00000-0 +10139-3 0 04362 2 25116 045.0180 073.0564 0006807 099.6234 260.5381 14.34439290663788 ORBCOMM FM 5 1 25117U 97084F 10245.92612884 -.00000236 +00000-0 -33367-4 0 03696 2 25117 045.0181 072.1713 0003548 125.7946 234.3239 14.34433751663817 ORBCOMM FM 6 1 25118U 97084G 10245.77822453 -.00000238 00000-0 -34114-4 0 2563 2 25118 045.0176 072.7390 0003008 136.5028 223.6044 14.34436704663794 ORBCOMM FM 7 1 25119U 97084H 10245.79567190 .00000193 00000-0 11749-3 0 5211 2 25119 045.0177 072.8604 0005163 115.2523 244.8862 14.34435923663798 NOAA 15 1 25338U 98030A 10245.60989742 -.00000039 +00000-0 +17389-5 0 05068 2 25338 098.6264 231.1732 0010236 204.7779 155.2887 14.24851667639777 RESURS O1-N4 1 25394U 98043A 10246.26037385 -.00000031 00000-0 41051-5 0 5935 2 25394 098.3048 260.0894 0002030 026.1543 333.9739 14.24208344631461 TMSAT 1 25396U 98043C 10245.73141408 -.00000012 +00000-0 +12388-4 0 07896 2 25396 098.3097 254.9341 0003257 033.2544 326.8837 14.23811001631276 TECHSAT 1B 1 25397U 98043D 10245.64764905 -.00000152 +00000-0 -49376-4 0 02742 2 25397 098.3170 248.8408 0002001 062.1008 298.0390 14.23183188631066 ORBCOMM FM 17 1 25413U 98046A 10246.36773430 -.00000145 00000-0 -23834-5 0 3944 2 25413 044.9990 356.0698 0001336 103.8959 256.2038 14.27655197630021 ORBCOMM FM 18 1 25414U 98046B 10245.67412597 -.00000048 +00000-0 +36110-4 0 03527 2 25414 044.9977 358.3575 0002095 073.6874 286.4149 14.28061755629937 ORBCOMM FM 19 1 25415U 98046C 10245.75403055 +.00000188 +00000-0 +13044-3 0 03878 2 25415 044.9980 358.1968 0001365 081.7039 278.3959 14.28061591629946 ORBCOMM FM 20 1 25416U 98046D 10245.76405026 +.00000328 +00000-0 +18651-3 0 08319 2 25416 044.9991 358.3289 0001718 161.6354 198.4550 14.28054142629906 ORBCOMM FM 16 1 25417U 98046E 10245.63397975 +.00000413 +00000-0 +22018-3 0 04356 2 25417 045.0005 359.9543 0002886 114.8690 245.2452 14.28055170629921 ORBCOMM FM 15 1 25418U 98046F 10245.78316948 +.00000403 +00000-0 +21620-3 0 04856 2 25418 045.0007 359.4805 0003249 109.1934 250.9268 14.28060810629949 ORBCOMM FM 14 1 25419U 98046G 10245.65386853 +.00000117 +00000-0 +10204-3 0 04460 2 25419 045.0002 000.0180 0002130 136.9373 223.1650 14.28062966629922 ORBCOMM FM 13 1 25420U 98046H 10245.66382676 -.00000143 +00000-0 -16601-5 0 03337 2 25420 045.0007 000.3596 0002876 097.3204 262.7962 14.28063102629954 ORBCOMM FM 21 1 25475U 98053A 10245.56322682 -.00000008 +00000-0 +51228-4 0 03786 2 25475 045.0088 085.5287 0003188 347.7649 012.3115 14.29113779623092 ORBCOMM FM 22 1 25476U 98053B 10245.66808192 .00000130 00000-0 10538-3 0 558 2 25476 045.0093 085.4255 0002505 041.7337 318.3704 14.29119982623095 ORBCOMM FM 23 1 25477U 98053C 10245.86546028 +.00000248 +00000-0 +15133-3 0 03704 2 25477 045.0102 084.2279 0003243 029.7415 330.3613 14.29114344623295 ORBCOMM FM 24 1 25478U 98053D 10245.78421572 +.00000155 +00000-0 +11497-3 0 09489 2 25478 045.0104 084.8630 0002936 048.8969 311.2097 14.29114703623269 ORBCOMM FM 25 1 25479U 98053E 10245.81976361 -.00000166 00000-0 -10211-4 0 2419 2 25479 045.0103 084.0577 0004818 044.5643 315.5579 14.29112214623261 ORBCOMM FM 26 1 25480U 98053F 10245.71147897 +.00000021 +00000-0 +62458-4 0 03222 2 25480 045.0094 074.6754 0006946 055.5491 304.6029 14.29390241623358 ORBCOMM FM 27 1 25481U 98053G 10245.90136367 -.00000043 +00000-0 +37562-4 0 08536 2 25481 045.0091 083.3387 0002163 032.9774 327.1142 14.29107585623279 ORBCOMM FM 28 1 25482U 98053H 10245.70514621 +.00000198 +00000-0 +12940-3 0 09700 2 25482 045.0108 053.7738 0004526 057.0972 303.0296 14.30226967623634 PAN SAT 1 25520U 98064B 10245.93859821 +.00000520 +00000-0 +15551-4 0 05699 2 25520 028.4584 169.4231 0005256 095.4887 264.6294 15.17647307655978 OSCAR 36 (UOSAT 12) 1 25693U 99021A 10245.41751658 +.00000007 +00000-0 +20560-4 0 02947 2 25693 064.5573 197.1504 0041570 300.3260 059.3735 14.78816377613234 FENGYUN 1C 1 25730U 99025A 10245.89336703 +.00000387 +00000-0 +25120-3 0 01288 2 25730 098.7896 208.8365 0023339 046.1513 314.1635 14.08265710582628 NAVSTAR 46 (USA 145) 1 25933U 99055A 10245.76250429 .00000013 00000-0 10000-3 0 8860 2 25933 050.8948 186.4915 0108559 047.1565 313.7378 02.00552307 79921 ORBCOMM FM 30 1 25980U 99065A 10245.48130124 +.00000314 +00000-0 +17762-3 0 08991 2 25980 045.0335 251.4763 0005772 224.4845 135.5524 14.28991283560546 ORBCOMM FM 31 1 25981U 99065B 10245.46702553 +.00000388 +00000-0 +20661-3 0 09984 2 25981 045.0251 248.8976 0005433 232.4216 127.6124 14.29006999560534 ORBCOMM FM 32 1 25982U 99065C 10245.45455198 +.00000148 +00000-0 +11168-3 0 09317 2 25982 045.0224 247.3630 0007098 223.3446 136.6816 14.29383772560556 ORBCOMM FM 33 1 25983U 99065D 10245.91753273 -.00000136 +00000-0 +13334-5 0 09074 2 25983 045.0313 249.1131 0004106 237.3572 122.6879 14.28958705560595 ORBCOMM FM 36 1 25984U 99065E 10245.45371261 -.00000094 +00000-0 +17801-4 0 09342 2 25984 045.0400 253.1247 0001264 116.7413 243.3557 14.29006702560532 ORBCOMM FM 35 1 25985U 99065F 10245.43927618 -.00000070 +00000-0 +27019-4 0 09654 2 25985 045.0422 254.1166 0004340 236.3781 123.6661 14.28992989560539 ORBCOMM FM 34 1 25986U 99065G 10245.98464356 +.00000161 +00000-0 +11789-3 0 09106 2 25986 045.0411 251.0141 0004323 207.5183 152.5433 14.28990353560614 OPAL 1 26063U 00004C 10245.69889253 -.00000026 +00000-0 +11296-4 0 08927 2 26063 100.2049 118.6443 0037305 095.8420 264.7011 14.35904417555451 NAVSTAR 47 (USA 150) 1 26360U 00025A 10245.85102112 .00000053 00000-0 10000-3 0 9819 2 26360 053.6350 258.3154 0038899 074.3481 286.1238 02.00577914 75628 FENGYUN 2B 1 26382U 00032A 10244.68505763 +.00000116 +00000-0 +10000-3 0 03061 2 26382 005.4017 066.9939 0002512 192.2262 167.9748 01.00093346037284 CHAMP 1 26405U 00039B 10246.20117130 .00094637 27245-5 10214-3 0 5886 2 26405 087.2058 131.1200 0004083 086.8005 273.3870 16.09918648580150 NAVSTAR 48 (USA 151) 1 26407U 00040A 10245.69360642 .00000025 00000-0 10000-3 0 9273 2 26407 055.6566 082.3149 0162540 249.0776 109.2456 02.00563073 74299 NOAA 16 1 26536U 00055A 10245.57499175 -.00000291 +00000-0 -13185-3 0 09840 2 26536 099.1697 264.8638 0011326 118.1810 242.0506 14.12573068512751 SAUDISAT 1A 1 26545U 00057A 10245.88584456 +.00000201 +00000-0 +44647-4 0 06207 2 26545 064.5568 193.3221 0034869 208.2585 151.6611 14.80726321536749 TIUNGSAT 1 1 26548U 00057D 10245.75409629 .00000233 00000-0 46000-4 0 7867 2 26548 064.5541 150.7772 0027471 211.8581 148.0880 14.83540984537604 SAUDISAT 1B 1 26549U 00057E 10245.92081941 +.00000029 +00000-0 +23126-4 0 07092 2 26549 064.5562 212.3068 0039692 208.1187 151.7783 14.79576666536366 NAVSTAR 49 (USA 154) 1 26605U 00071A 10245.30188650 -.00000060 00000-0 10000-3 0 9407 2 26605 056.4571 323.1046 0057499 239.2104 120.2821 02.00577088 71880 NAVSTAR 50 (USA 156) 1 26690U 01004A 10246.16027537 .00000050 00000-0 10000-3 0 8204 2 26690 053.6372 261.3931 0119653 228.8425 130.1632 02.00558036 70318 PICOSAT 9 1 26930U 01043B 10246.40120757 -.00000074 00000-0 35800-5 0 5255 2 26930 067.0041 337.4258 0003124 220.1459 139.9426 14.30077606466111 PCSAT 1 26931U 01043C 10246.34969940 -.00000073 00000-0 37756-5 0 5480 2 26931 067.0532 002.5909 0005222 270.0076 090.0434 14.29608425465921 SAPPHIRE 1 26932U 01043D 10245.66986338 -.00000073 +00000-0 +39493-5 0 05542 2 26932 067.0587 004.4401 0003643 258.3068 101.7564 14.29645309465875 FENGYUN 1D 1 27431U 02024B 10246.45365890 -.00000064 00000-0 -12566-4 0 3055 2 27431 098.6741 223.7814 0014367 237.1382 122.8381 14.09298388427244 NOAA 17 1 27453U 02032A 10245.69938411 -.00000082 +00000-0 -17598-4 0 09773 2 27453 098.4231 292.9943 0010735 270.8573 089.1376 14.24185559425735 MOZHAYETS 1 27560U 02054B 10246.39876762 -.00000023 00000-0 49351-5 0 6576 2 27560 097.9206 071.4349 0041854 270.1452 089.4950 14.55122066411201 SAUDISAT 1C 1 27607U 02058C 10245.88921089 -.00000161 +00000-0 -38317-5 0 02602 2 27607 064.5576 120.5029 0039385 042.7026 317.7081 14.71570014413819 NAVSTAR 51 (USA 166) 1 27663U 03005A 10245.52036578 .00000024 00000-0 10000-3 0 2195 2 27663 055.7596 081.8910 0061510 350.0624 009.8848 02.00567744 55656 NAVSTAR 52 (USA 168) 1 27704U 03010A 10246.08049476 .00000031 00000-0 10000-3 0 1108 2 27704 053.4192 200.8788 0170099 220.5598 138.1474 02.00566389 54451 NAVSTAR 53 (USA 175) 1 28129U 03058A 10246.20382391 .00000049 00000-0 10000-3 0 7073 2 28129 053.5053 261.6572 0057698 249.5621 109.8634 02.00557976 49160 NAVSTAR 54 (USA 177) 1 28190U 04009A 10245.66040554 -.00000005 00000-0 10000-3 0 6756 2 28190 054.8927 144.7842 0067049 353.5723 006.3900 02.00551586 47327 NAVSTAR 55 (USA 178) 1 28361U 04023A 10245.44575828 -.00000057 00000-0 10000-3 0 4941 2 28361 055.4099 320.7606 0069871 178.6820 181.3980 02.00565988 45407 APRIZESAT 2 1 28366U 04025A 10245.93488029 +.00000102 +00000-0 +47305-4 0 07119 2 28366 098.1273 221.3946 0108222 276.5497 082.3375 14.35621843323754 UNISAT 3 1 28373U 04025H 10245.55829555 -.00000066 +00000-0 -67833-5 0 07398 2 28373 098.0381 242.8792 0070714 194.5154 165.4008 14.43407219325959 AMSAT ECHO 1 28375U 04025K 10245.93454861 +.00000024 +00000-0 +20062-4 0 07660 2 28375 098.0680 235.0284 0082785 221.3925 138.0969 14.40696949324700 NAVSTAR 56 (USA 180) 1 28474U 04045A 10245.93674963 .00000031 00000-0 10000-3 0 3731 2 28474 053.8405 199.2884 0095233 180.5663 179.4065 02.00568963 42775 HAMSAT 1 28650U 05017B 10246.33063109 .00000232 00000-0 35667-4 0 5873 2 28650 097.6846 296.6868 0027656 023.3310 336.9131 14.81799561288269 NAVSTAR 57 (USA 183) 1 28874U 05038A 10245.28976148 -.00000003 +00000-0 +10000-3 0 06447 2 28874 055.0314 141.6574 0055023 219.5140 140.1383 02.00566461036182 SSETI-EXPRESS 1 28894U 05043E 10245.68008094 +.00000040 +00000-0 +17851-4 0 08573 2 28894 097.9972 126.9035 0018570 046.5902 313.6843 14.59748610258401 MOZ.5/SAFIR/RUBIN 5/SL-8 1 28898U 05043G 10246.31095931 .00000066 00000-0 23676-4 0 6910 2 28898 097.9817 122.6533 0019715 057.2556 303.0540 14.58627506258298 SUITSAT (Decayed 2006-09-07) 1 28933U 05035C 06250.56263144 .13300754 00000-0 18638-3 0 4012 2 28933 051.6150 101.2534 0006572 313.0977 047.0289 16.48585101 34276 CUTE 1.7 (Decayed 2009-10-25) 1 28941U 06005C 09297.68475575 .14491492 29743-5 25760-3 0 5565 2 28941 098.0955 138.9518 0011688 319.8691 040.7485 16.46998778207909 HITSAT (Decayed 2008-06-18) 1 29484U 06041F 08170.27591928 .21901596 31637-5 19690-3 0 4662 2 29484 098.2496 292.5583 0013872 275.6258 084.5236 16.51113477 98738 NAVSTAR 58 (USA 190) 1 29486U 06042A 10245.40338976 -.00000047 00000-0 10000-3 0 9663 2 29486 056.0288 020.5016 0074950 298.8641 060.3972 02.00555689 28880 NAVSTAR 59 (USA 192) 1 29601U 06052A 10245.84838039 .00000026 00000-0 10000-3 0 168 2 29601 055.6908 080.8710 0032650 356.1312 003.8422 02.00568955 27800 RAFT (Decayed 2007-05-30) 1 29661U 06055C 07150.05824307 .13324117 12618-4 10400-3 0 3000 2 29661 051.6186 176.5045 0007204 190.7749 188.7342 16.52052832 25544 MARSCOM (Decayed 2007-05-06) 1 29662U 06055D 07126.39603970 .07031946 12599-4 11450-3 0 2632 2 29662 051.6121 302.3682 0004459 252.1654 110.7411 16.47981436 21652 ANDE MAA SPHERE 1 (Decayed 2007-12-25) 1 29664U 06055F 07359.16654419 .14620719 12705-4 12723-3 0 7381 2 29664 051.6179 150.0690 0003189 248.8461 111.8136 16.51627846 58777 ANDE FCAL SPHERE 2 (Decayed 2008-05-25) 1 29667U 06055J 08146.34060426 .11864717 12752-4 73624-4 0 9790 2 29667 051.6107 065.3702 0009039 260.8350 099.5042 16.53464210 82911 PEHUENSAT 1 1 29712U 07001D 10245.73054516 +.00000735 +00000-0 +10087-3 0 03226 2 29712 097.7752 295.2668 0012789 274.5602 085.4148 14.81238100196960 NAVSTAR 60 (USA 196) 1 32260U 07047A 10246.15534239 -.00000055 00000-0 00000+0 0 7444 2 32260 054.5948 319.2190 0025659 345.9530 014.0371 02.00549156 21204 NAVSTAR 61 (USA 199) 1 32384U 07062A 10245.97667353 -.00000004 00000-0 10000-3 0 7653 2 32384 055.0451 142.1081 0032148 284.4953 075.2080 02.00561816 19924 NAVSTAR 62 (USA 201) 1 32711U 08012A 10245.57292746 -.00000048 00000-0 10000-3 0 6106 2 32711 055.7253 020.4930 0039301 179.1901 180.8326 02.00561077 18123 DELFI C3 1 32789U 08021G 10246.28658029 .00000872 00000-0 11564-3 0 7752 2 32789 097.8943 310.6538 0016118 034.3310 325.8982 14.82284628127077 YUBILEINY 1 32953U 08025A 10246.36486762 .00000010 00000-0 00000+0 0 106 2 32953 082.5073 341.0670 0017644 293.4118 066.5109 12.43007575103454 PRISM (HITOMI) 1 33493U 09002B 10246.35465470 .00000383 00000-0 56415-4 0 8178 2 33493 098.0935 006.5502 0018703 247.2604 112.6641 14.81081836 87051 STARS (KUKAI) 1 33498U 09002G 10245.83373720 +.00000276 +00000-0 +52490-4 0 01972 2 33498 098.0643 355.7088 0012839 359.2261 000.8916 14.71535689086407 KKS-1 (KISEKI) 1 33499U 09002H 10245.68445013 .00000230 00000-0 45802-4 0 2038 2 33499 098.0656 355.0635 0010168 359.4489 000.6713 14.70837050 86342 ANDE CASTOR SPHERE (Decayed 2010-08-18) 1 35694U 09038F 10230.44082147 .07179566 12689-4 99310-4 0 6559 2 35694 051.5930 222.0149 0004218 308.0851 053.0105 16.48877011 61107 SUMBANDILA 1 35870U 09049F 10246.54539819 .00000417 00000-0 21783-4 0 710 2 35870 097.3247 293.5803 0003052 153.4752 344.0763 15.21027350 53364 XIWANG-1 (HOPE-1) 1 36122U 09072B 10246.30849579 -.00000045 00000-0 00000+0 0 6389 2 36122 100.4626 305.9217 0007538 156.3856 203.7599 13.16281612 34495